Vertical_Velocity
0 -0 1 1 -1 -1 -0 -2 0 -2 -1 -1 1 -0 0 -0 -0 0 3 -0 1 -0
0 1 -2 -2 -2 -3 -1 -2 -2 -1 -3 1 -1 1 0 1 -1 1 1 2 0 0
1 -1 -1 0 1 -1 -3 -1 -0 -1 -1 -2 -0 0 0 1 -0 -1 -0 1 -1 0
1 0 -1 -1 -1 3 -1 -1 -2 -0 -0 1 -2 -1 -2 -2 -1 -2 1 -1 -0 2
-2 -1 -1 -2 -3 -1 1 -1 -2 1 -0 3 -1 0 -0 -2 2 -4 4 -0 -3 5
-5 -0 -1 -2 -3 -3 -4 1 -1 -3 0 -1 2 1 2 -1 1 0 1 3 -4 4
-3 -0 0 -1 -4 0 -1 1 -3 1 1 0 4 -2 2 -1 -2 1 -1 2 -1 1
-3 -2 2 -2 -7 1 -2 1 1 -4 2 1 -0 0 -1 3 -2 -1 -1 -2 -0 2
2 -3 -3 -2 -0 -3 1 1 -3 -6 -2 3 -2 0 3 -0 5 -4 -0 -4 7 5
-3 -0 0 -0 1 -0 -2 -1 0 2 -3 -2 3 2 0 6 -1 -2 -1 -1 3 4
-0 -1 -1 -2 -1 -0 -3 -2 -1 4 2 1 -1 3 1 -0 1 6 -2 -1 2 1
-1 -4 -3 -2 -4 3 -2 -3 1 4 1 0 -0 2 0 1 3 0 -1 2 0 -0
-1 -1 -0 0 -1 -1 1 2 1 2 -1 1 1 -0 1 3 0 0 -0 -0 1 -1
-1 -1 -0 -1 0 -0 2 -2 0 1 1 1 -1 1 3 2 1 2 -2 -1 0 1
Height
3125 3125 3126 3126 3125 3124 3123 3122 3122 3121 3120 3119 3118 3116 3115 3114 3113 3112 3110 3109 3108 3106
3117 3117 3117 3117 3116 3115 3115 3114 3113 3112 3111 3110 3109 3108 3106 3105 3104 3103 3102 3100 3098 3096
3109 3109 3109 3108 3107 3106 3105 3104 3103 3103 3102 3101 3099 3098 3097 3096 3095 3094 3092 3091 3089 3088
3100 3100 3100 3099 3099 3097 3096 3095 3094 3094 3093 3091 3090 3089 3088 3087 3086 3084 3083 3083 3082 3081
3092 3093 3092 3091 3091 3090 3088 3088 3086 3085 3083 3082 3080 3079 3078 3077 3077 3076 3075 3075 3075 3075
3085 3085 3084 3084 3083 3082 3080 3079 3077 3076 3075 3073 3072 3070 3069 3068 3068 3068 3068 3066 3067 3067
3078 3077 3076 3075 3074 3074 3072 3071 3069 3068 3067 3064 3063 3062 3061 3060 3061 3061 3061 3059 3060 3060
3071 3071 3069 3068 3067 3065 3064 3063 3061 3059 3058 3057 3055 3055 3054 3054 3054 3054 3054 3054 3054 3054
3065 3064 3063 3062 3061 3058 3057 3055 3053 3051 3049 3049 3048 3048 3047 3048 3047 3049 3049 3050 3050 3050
3059 3058 3057 3055 3053 3050 3049 3047 3045 3043 3042 3042 3041 3041 3042 3043 3042 3044 3045 3045 3047 3048
3053 3051 3049 3048 3045 3043 3041 3040 3038 3036 3034 3035 3037 3037 3037 3038 3039 3041 3042 3044 3045 3045
3047 3045 3043 3041 3039 3037 3035 3034 3032 3030 3030 3030 3031 3032 3033 3036 3037 3038 3039 3041 3042 3042
3040 3038 3037 3034 3033 3030 3029 3027 3026 3025 3025 3026 3027 3028 3032 3033 3034 3036 3037 3038 3038 3039
3033 3031 3030 3029 3027 3026 3024 3023 3022 3021 3022 3023 3026 3027 3029 3031 3031 3032 3033 3034 3035 3035